Weather History for Provo, UT

Change the Weather History Date:

Sunday, October 20, 2013

  Actual Average Record
Temperature  
Mean Temperature 46 °F -  
Max Temperature 60 °F 59 °F 75 °F (2003)
Min Temperature 32 °F 34 °F 28 °F (1996)
Degree Days  
Heating Degree Days 19    
Moisture  
Dew Point 31 °F    
Average Humidity 69    
Maximum Humidity 87    
Minimum Humidity 29    
Precipitation  
Precipitation 0.00 in - - ()
Sea Level Pressure  
Sea Level Pressure 30.10 in    
Wind  
Wind Speed 2 mph (ESE)    
Max Wind Speed 12 mph    
Max Gust Speed -    
Visibility 12 miles    
Events      
Averages and records for this station are not official NWS values.
T = Trace of Precipitation, MM = Missing Value Source: NWS Daily Summary

Daily Weather History Graph

Daily Weather History Graph

Search for Another Location

Airport:

Trip Planner

Search our weather history database for the weather conditions in past years. The results will help you decide how hot, cold, wet, or windy it might be!

Date:

Astronomy

Oct. 20, 2013 Rise Set
Actual Time 7:43 AM MDT 6:39 PM MDT
Civil Twilight 7:15 AM MDT 7:06 PM MDT
Nautical Twilight 6:44 AM MDT 7:38 PM MDT
Astronomical Twilight 6:12 AM MDT 8:09 PM MDT
Moon 7:50 PM MDT (10/20) 9:24 AM MDT (10/20)
Length of Visible Light 11h 51m
Length of Day
10h 56m
Full, 97% of the Moon is Illuminated
Oct 20
Full
Oct 26
Last Quarter
Nov 3
New
Nov 9
First Quarter
Nov 17
Full

Hourly Weather History & Observations

Time (MDT) Temp. Windchill Dew Point Humidity Pressure Visibility Wind Dir Wind Speed Gust Speed Precip Events Conditions
12:15 AM 41.0 °F - 32.0 °F 70% 30.13 in 10.0 mi Calm Calm - N/A   Clear
12:35 AM 39.2 °F - 33.8 °F 81% 30.12 in 10.0 mi Calm Calm - N/A   Clear
12:55 AM 37.4 °F - 32.0 °F 81% 30.12 in 10.0 mi Calm Calm - N/A   Clear
1:15 AM 37.4 °F - 30.2 °F 75% 30.12 in 10.0 mi Calm Calm - N/A   Clear
1:35 AM 35.6 °F 32.8 °F 30.2 °F 81% 30.11 in 10.0 mi East 3.5 mph - N/A   Clear
1:55 AM 35.6 °F 31.7 °F 30.2 °F 81% 30.11 in 10.0 mi East 4.6 mph - N/A   Clear
2:15 AM 33.8 °F 29.6 °F 28.4 °F 81% 30.11 in 10.0 mi ESE 4.6 mph - N/A   Clear
2:35 AM 37.4 °F - 28.4 °F 70% 30.11 in 10.0 mi Calm Calm - N/A   Clear
2:55 AM 35.6 °F - 28.4 °F 75% 30.12 in 10.0 mi Calm Calm - N/A   Clear
3:15 AM 35.6 °F 32.8 °F 26.6 °F 70% 30.11 in 10.0 mi SSE 3.5 mph - N/A   Clear
3:35 AM 35.6 °F - 30.2 °F 81% 30.11 in 10.0 mi Calm Calm - N/A   Clear
3:55 AM 33.8 °F 30.8 °F 28.4 °F 81% 30.10 in 10.0 mi East 3.5 mph - N/A   Clear
4:15 AM 35.6 °F 31.7 °F 30.2 °F 81% 30.10 in 10.0 mi East 4.6 mph - N/A   Clear
4:35 AM 35.6 °F 32.8 °F 30.2 °F 81% 30.09 in 10.0 mi East 3.5 mph - N/A   Clear
4:55 AM 33.8 °F 30.8 °F 28.4 °F 81% 30.09 in 10.0 mi SE 3.5 mph - N/A   Clear
5:15 AM 33.8 °F - 30.2 °F 87% 30.09 in 10.0 mi Calm Calm - N/A   Clear
5:35 AM 35.6 °F 31.7 °F 30.2 °F 81% 30.09 in 10.0 mi SE 4.6 mph - N/A   Clear
5:55 AM 35.6 °F 32.8 °F 28.4 °F 75% 30.08 in 10.0 mi SE 3.5 mph - N/A   Clear
6:15 AM 32.0 °F 28.7 °F 26.6 °F 80% 30.08 in 10.0 mi East 3.5 mph - N/A   Clear
6:35 AM 33.8 °F - 28.4 °F 81% 30.09 in 10.0 mi Calm Calm - N/A   Clear
6:55 AM 33.8 °F 29.6 °F 28.4 °F 81% 30.09 in 15.0 mi NE 4.6 mph - N/A   Scattered Clouds
7:50 AM 33.8 °F - 28.4 °F 81% 30.09 in 15.0 mi Calm Calm - N/A   Scattered Clouds
8:50 AM 35.6 °F - 32.0 °F 87% 30.10 in 15.0 mi Calm Calm - N/A   Scattered Clouds
9:50 AM 42.8 °F - 30.2 °F 61% 30.12 in 15.0 mi Calm Calm - N/A   Scattered Clouds
10:50 AM 46.4 °F - 30.2 °F 53% 30.11 in 15.0 mi Calm Calm - N/A   Scattered Clouds
11:50 AM 50.0 °F - 30.2 °F 47% 30.10 in 15.0 mi Variable 4.6 mph - N/A   Scattered Clouds
12:50 PM 51.8 °F - 33.8 °F 50% 30.10 in 15.0 mi Variable 4.6 mph - N/A   Scattered Clouds
2:47 PM 59.0 °F - 30.2 °F 34% 30.06 in 15.0 mi SW 5.8 mph - N/A   Scattered Clouds
3:50 PM 60.8 °F - 28.4 °F 29% 30.05 in 15.0 mi Variable 4.6 mph - N/A   Scattered Clouds
4:50 PM 57.2 °F - 32.0 °F 38% 30.05 in 15.0 mi Variable 4.6 mph - N/A   Partly Cloudy
6:50 PM 53.6 °F - 33.8 °F 47% 30.06 in 15.0 mi WNW 11.5 mph - N/A   Scattered Clouds
7:50 PM 51.8 °F - 35.6 °F 54% 30.08 in 15.0 mi Variable 4.6 mph - N/A   Partly Cloudy
8:50 PM 48.2 °F - 33.8 °F 58% 30.09 in 15.0 mi Variable 4.6 mph - N/A   Partly Cloudy
9:15 PM 44.6 °F - 33.8 °F 66% 30.09 in 10.0 mi Calm Calm - N/A   Clear
9:35 PM 46.4 °F - 33.8 °F 62% 30.10 in 10.0 mi Calm Calm - N/A   Clear
9:55 PM 46.4 °F - 32.0 °F 57% 30.10 in 10.0 mi Calm Calm - N/A   Clear
10:15 PM 44.6 °F 40.7 °F 33.8 °F 66% 30.11 in 10.0 mi SSE 6.9 mph - N/A   Clear
10:35 PM 42.8 °F 39.3 °F 33.8 °F 70% 30.12 in 10.0 mi SE 5.8 mph - N/A   Clear
10:55 PM 44.6 °F 41.4 °F 33.8 °F 66% 30.12 in 10.0 mi SE 5.8 mph - N/A   Clear
11:15 PM 42.8 °F 40.1 °F 33.8 °F 70% 30.12 in 10.0 mi SSE 4.6 mph - N/A   Clear
11:35 PM 41.0 °F - 33.8 °F 76% 30.12 in 10.0 mi Calm Calm - N/A   Clear
11:55 PM 39.2 °F 37.0 °F 33.8 °F 81% 30.13 in 10.0 mi East 3.5 mph - N/A   Clear